When you browse on this site, cookies collect data to enhance your experience and personalize the content and advertising you see.
Visit our Privacy Policy to learn more. By continuing to use the site, you agree to this use of cookies and data.
  • In Hungary
  • List of Countries
  • For 7 days
  • Water Temperature
  • Weather Map
  • News
  • Weather Widgets
  • user-avatar
    Login

    Hourly Weather Stulovo

    Today, 18 January, Saturday

    Time Temperature Precipitation Wind Pressure Humidity
    00:00 +1°C° 0 mm 3 mps 754 mmHg 90%
    01:00 0°C° 0 mm 3 mps 754 mmHg 91%
    02:00 0°C° 0 mm 3 mps 754 mmHg 91%
    03:00 0°C° 0 mm 3 mps 755 mmHg 94%
    04:00 0°C° 0 mm 3 mps 755 mmHg 94%
    05:00 0°C° 0 mm 3 mps 755 mmHg 94%
    06:00 0°C° 0 mm 3 mps 754 mmHg 93%
    07:00 -1°C° 0 mm 3 mps 755 mmHg 94%
    08:00 -1°C° 0 mm 3 mps 755 mmHg 94%
    09:00 -2°C° 0 mm 3 mps 755 mmHg 96%
    10:00 -2°C° 0 mm 3 mps 755 mmHg 95%
    11:00 -2°C° 0 mm 3 mps 754 mmHg 94%
    12:00 -2°C° 0 mm 4 mps 754 mmHg 93%
    13:00 -2°C° 0 mm 4 mps 754 mmHg 92%
    14:00 -2°C° 0 mm 4 mps 754 mmHg 91%
    15:00 -1°C° 0 mm 3 mps 754 mmHg 91%
    16:00 -2°C° 0 mm 4 mps 753 mmHg 91%
    17:00 -2°C° 0 mm 4 mps 753 mmHg 91%
    18:00 -2°C° 0 mm 4 mps 752 mmHg 91%
    19:00 -2°C° 0 mm 4 mps 752 mmHg 89%
    20:00 -3°C° 0 mm 4 mps 752 mmHg 88%
    21:00 -3°C° 0 mm 4 mps 751 mmHg 86%
    22:00 -3°C° 0 mm 4 mps 751 mmHg 86%
    23:00 -3°C° 0 mm 4 mps 751 mmHg 85%

    Tomorrow, 19 January, Sunday

    Time Temperature Precipitation Wind Pressure Humidity
    00:00 -3°C° 0 mm 4 mps 751 mmHg 85%
    01:00 -3°C° 0 mm 4 mps 751 mmHg 85%
    02:00 -3°C° 0 mm 4 mps 751 mmHg 86%
    03:00 -3°C° 0 mm 4 mps 752 mmHg 87%
    04:00 -3°C° 0 mm 4 mps 752 mmHg 88%
    05:00 -4°C° 0 mm 4 mps 752 mmHg 89%
    06:00 -4°C° 0 mm 3 mps 752 mmHg 90%
    07:00 -4°C° 0 mm 3 mps 752 mmHg 90%
    08:00 -4°C° 0 mm 3 mps 753 mmHg 91%
    09:00 -2°C° 0 mm 3 mps 753 mmHg 91%
    10:00 -2°C° 0 mm 3 mps 753 mmHg 90%
    11:00 -1°C° 0 mm 3 mps 753 mmHg 89%
    12:00 -1°C° 0 mm 3 mps 753 mmHg 89%
    13:00 0°C° 0 mm 3 mps 753 mmHg 88%
    14:00 -1°C° 0 mm 4 mps 753 mmHg 88%
    15:00 -1°C° 0 mm 4 mps 754 mmHg 88%
    16:00 -1°C° 0 mm 4 mps 754 mmHg 86%
    17:00 -1°C° 0 mm 4 mps 754 mmHg 85%
    18:00 -1°C° 0 mm 4 mps 754 mmHg 83%
    19:00 -1°C° 0 mm 4 mps 754 mmHg 84%
    20:00 -1°C° 0 mm 4 mps 754 mmHg 85%
    21:00 -1°C° 0 mm 4 mps 754 mmHg 85%
    22:00 -1°C° 0 mm 5 mps 754 mmHg 86%
    23:00 -1°C° 0 mm 5 mps 754 mmHg 88%

    Day after tomorrow, 20 January, Monday

    Time Temperature Precipitation Wind Pressure Humidity
    00:00 -1°C° 0 mm 5 mps 753 mmHg 89%
    01:00 -1°C° 0 mm 5 mps 754 mmHg 88%
    02:00 -1°C° 0 mm 5 mps 754 mmHg 88%
    03:00 -1°C° 0 mm 5 mps 754 mmHg 87%
    04:00 -1°C° 0 mm 5 mps 754 mmHg 89%
    05:00 -1°C° 0 mm 5 mps 754 mmHg 91%
    06:00 -1°C° 0 mm 5 mps 753 mmHg 93%
    07:00 -1°C° 0 mm 5 mps 754 mmHg 94%
    08:00 -1°C° 0 mm 5 mps 754 mmHg 95%
    09:00 -1°C° 0 mm 5 mps 754 mmHg 96%
    10:00 -1°C° 0.1 mm 5 mps 754 mmHg 95%
    11:00 -1°C° 0.1 mm 5 mps 754 mmHg 95%
    12:00 -1°C° 0.1 mm 5 mps 753 mmHg 95%
    13:00 -1°C° 0.1 mm 5 mps 753 mmHg 95%
    14:00 -1°C° 0.1 mm 5 mps 753 mmHg 95%
    15:00 -1°C° 0.1 mm 5 mps 753 mmHg 95%
    16:00 -1°C° 0 mm 5 mps 753 mmHg 95%
    17:00 -1°C° 0 mm 5 mps 753 mmHg 95%
    18:00 -1°C° 0 mm 5 mps 752 mmHg 96%
    19:00 -1°C° 0 mm 5 mps 752 mmHg 94%
    20:00 -1°C° 0 mm 5 mps 752 mmHg 91%
    21:00 0°C° 0 mm 5 mps 751 mmHg 89%
    22:00 -2°C° 0 mm 6 mps 751 mmHg 89%
    23:00 -3°C° 0 mm 6 mps 750 mmHg 90%

    21 January, Tuesday

    Time Temperature Precipitation Wind Pressure Humidity
    00:00 -3°C° 0 mm 6 mps 750 mmHg 90%
    01:00 -3°C° 0.2 mm 6 mps 749 mmHg 90%
    02:00 -2°C° 0.2 mm 5 mps 749 mmHg 90%
    03:00 -2°C° 0.2 mm 5 mps 748 mmHg 90%
    04:00 -2°C° 0.3 mm 5 mps 747 mmHg 92%
    05:00 -3°C° 0.3 mm 6 mps 746 mmHg 94%
    06:00 -3°C° 0.3 mm 6 mps 745 mmHg 96%
    07:00 -3°C° 0.7 mm 6 mps 744 mmHg 95%
    08:00 -2°C° 0.7 mm 7 mps 743 mmHg 94%
    09:00 -2°C° 0.7 mm 7 mps 743 mmHg 94%
    10:00 -1°C° 0.1 mm 7 mps 742 mmHg 92%
    11:00 0°C° 0.1 mm 7 mps 741 mmHg 90%
    12:00 0°C° 0.1 mm 7 mps 741 mmHg 89%
    13:00 +2°C° 0.1 mm 7 mps 741 mmHg 87%
    14:00 +2°C° 0.1 mm 7 mps 740 mmHg 86%
    15:00 +2°C° 0.1 mm 7 mps 740 mmHg 85%
    16:00 +2°C° 0 mm 6 mps 740 mmHg 86%
    17:00 +2°C° 0 mm 6 mps 739 mmHg 86%
    18:00 +1°C° 0 mm 5 mps 739 mmHg 87%
    19:00 +1°C° 0.2 mm 5 mps 738 mmHg 90%
    20:00 +1°C° 0.2 mm 4 mps 737 mmHg 93%
    21:00 +1°C° 0.2 mm 4 mps 736 mmHg 96%
    22:00 +1°C° 1.2 mm 4 mps 735 mmHg 96%
    23:00 +1°C° 1.2 mm 4 mps 734 mmHg 96%

    22 January, Wednesday

    Time Temperature Precipitation Wind Pressure Humidity
    00:00 +1°C° 1.2 mm 4 mps 733 mmHg 96%
    01:00 0°C° 0.5 mm 5 mps 733 mmHg 96%
    02:00 -2°C° 0.5 mm 7 mps 733 mmHg 95%
    03:00 -2°C° 0.5 mm 8 mps 733 mmHg 94%
    04:00 -3°C° 0.1 mm 7 mps 733 mmHg 89%
    05:00 -3°C° 0.1 mm 7 mps 734 mmHg 84%
    06:00 -4°C° 0.1 mm 6 mps 734 mmHg 79%
    07:00 -4°C° 0 mm 6 mps 734 mmHg 79%
    08:00 -4°C° 0 mm 6 mps 734 mmHg 79%
    09:00 -4°C° 0 mm 6 mps 734 mmHg 79%
    10:00 -4°C° 0 mm 7 mps 734 mmHg 78%
    11:00 -4°C° 0 mm 7 mps 734 mmHg 77%
    12:00 -5°C° 0 mm 8 mps 734 mmHg 76%
    13:00 -5°C° 0 mm 8 mps 735 mmHg 76%
    14:00 -5°C° 0 mm 8 mps 735 mmHg 75%
    15:00 -5°C° 0 mm 8 mps 735 mmHg 75%
    16:00 -4°C° 0.1 mm 7 mps 735 mmHg 75%
    17:00 -4°C° 0.1 mm 7 mps 736 mmHg 76%
    18:00 -5°C° 0.1 mm 6 mps 736 mmHg 76%
    19:00 -5°C° 0 mm 6 mps 737 mmHg 75%
    20:00 -5°C° 0 mm 6 mps 737 mmHg 74%
    21:00 -6°C° 0 mm 6 mps 737 mmHg 72%
    22:00 -6°C° 0 mm 6 mps 738 mmHg 72%
    23:00 -8°C° 0 mm 6 mps 738 mmHg 72%

    23 January, Thursday

    Time Temperature Precipitation Wind Pressure Humidity
    00:00 -8°C° 0 mm 6 mps 739 mmHg 72%
    01:00 -8°C° 0 mm 6 mps 739 mmHg 70%
    02:00 -9°C° 0 mm 6 mps 739 mmHg 67%
    03:00 -9°C° 0 mm 7 mps 740 mmHg 65%
    04:00 -9°C° 0 mm 6 mps 740 mmHg 65%
    05:00 -9°C° 0 mm 6 mps 740 mmHg 66%
    06:00 -8°C° 0 mm 5 mps 740 mmHg 66%
    07:00 -9°C° 0.1 mm 6 mps 740 mmHg 67%
    08:00 -8°C° 0.1 mm 6 mps 741 mmHg 67%
    09:00 -8°C° 0.1 mm 6 mps 741 mmHg 67%
    10:00 -9°C° 0 mm 6 mps 742 mmHg 65%
    11:00 -9°C° 0 mm 7 mps 743 mmHg 63%
    12:00 -9°C° 0 mm 7 mps 743 mmHg 61%
    13:00 -9°C° 0 mm 7 mps 744 mmHg 62%
    14:00 -9°C° 0 mm 7 mps 745 mmHg 64%
    15:00 -9°C° 0 mm 7 mps 745 mmHg 65%
    16:00 -11°C° 0 mm 7 mps 746 mmHg 66%
    17:00 -10°C° 0 mm 6 mps 747 mmHg 68%
    18:00 -10°C° 0 mm 6 mps 748 mmHg 69%
    19:00 -10°C° 0 mm 6 mps 748 mmHg 70%
    20:00 -10°C° 0 mm 6 mps 749 mmHg 71%
    21:00 -11°C° 0 mm 6 mps 749 mmHg 73%
    22:00 -11°C° 0 mm 5 mps 750 mmHg 74%
    23:00 -11°C° 0 mm 5 mps 750 mmHg 75%
    Show more